Kuiper-00123

operational
NORAD ID: 65952 Int'l Des: 2025-228 Owner: KUIP Country: US Constellation: kuiper
NOTLE

About Kuiper-00123

Description loading...

Live Position

Loading 3D Globe...

Upcoming Passes

Altitude History

Altitude vs Time

uPlot chart will show altitude changes over time

Two-Line Element Set

1 65952U 25228F 25318.83334491 -.00505535 00000-0 -25036-1 0 9992
2 65952 51.8847 155.9135 0006836 263.4548 229.1390 15.19625338 3042
Epoch: Nov 14, 2025 • Age: 7 hours

Current Status

Altitude 511.0 km
Velocity 7.61 km/s
Sub-Earth Point -16.07°S, 38.71°E
Launch Date Oct 14, 2025
Age 32 days
Type internet

Technical Details

Classification Payload
Mass 490.00 kg
Dry Mass 490.00 kg
Total Mass 490.00 kg
Length 1.80 m
Diameter 0.70 m
Span 5.00 m
Shape Box + 2 pan
Manufacturer KUIP
Bus Type Kuiper
Phase Status In Orbit
Owner/State KUIP/US

Large Constellations

Loading constellations...